Andreas Artymatas

Chefscout - Ermis
4 Apr 2027
Sonntag
Verarbeitung

Persönlichkeit

Anpassungsfähigkeit (12) Ehrgeiz (5) Kontroverse (9) Loyalität (20) Druck (4) Professionalität (12) Fairness (16) Temperament (1)

Profil

Trainerstil Demokratisch
Lizenz Kontinentale Pro
Entschlossenheit 2
Menschenführung 5
Motivation 9
Disziplin 7
Arbeitszufriedenheit
49%
Ermüdung
0%
Rolle Chefscout
Gehalt 17.1K p/W
Vertrag 14.03.2028

Leistung

Verhalten Normal
Trainingseffektivität
10%
Spielerentwicklung
25%
Verletzungsprävention
45%
Taktische Umsetzung
30%

Letzte Ereignisse

Nahm an einer Scouting-Besprechung teil jetzt
Nahm an einer Scouting-Besprechung teil 7T her
Empfahl ein Transferziel 7T her
Empfahl ein Transferziel 7T her
Nahm an einer Scouting-Besprechung teil 14T her
Empfahl ein Transferziel 14T her
Empfahl ein Transferziel 14T her
Spieler begutachtet 21T her

Aktuell beobachtet

137
Spieler Verein Status Fähigkeit Vertrauen Beobachtet Zuletzt beobachtet Letzte Stimme
Aleksej Golijanin Sokol Aktiv 77 / 88 40% 2 14.03.2027 -
Mamadou Sidibé AS Police Aktiv 105 / 90 40% 1 14.03.2027 -
Milan Vidakov Radnicki 1923 Aktiv 97 / 102 40% 3 12.03.2027 -
Giancarlo Mosta Aktiv 90 / 72 40% 1 12.03.2027 -
Alexandr Saplinov Volga Aktiv 115 / 105 40% 6 11.03.2027 -
Albek Gongapshev Shinnik Aktiv 87 / 82 40% 2 11.03.2027 -
David Karaev KAMAZ Aktiv 94 / 116 40% 1 10.03.2027 -
Midana Cassamá Portimonense Aktiv 118 / 102 40% 1 10.03.2027 -
Nikos Karelis Sliema Wanderers Aktiv 103 / 109 40% 3 09.03.2027 -
Mésaque Djú Portimonense Aktiv 101 / 109 40% 1 09.03.2027 -
Valentino Pereira Doxa Aktiv 83 / 84 40% 2 08.03.2027 -
Riad Bajić AE Kition Aktiv 108 / 110 40% 4 08.03.2027 -
Migran Ageyan Ufa Aktiv 93 / 114 40% 2 06.03.2027 -
Malick Berthé AS Police Aktiv 99 / 92 40% 1 06.03.2027 -
Amur Kalmykov Spartak Kostroma Aktiv 108 / 121 40% 4 04.03.2027 -
Jordan Roberts Stevenage Aktiv 110 / 101 40% 8 04.03.2027 -
Alexandr Yushin Torpedo Moscow Aktiv 95 / 96 40% 5 02.03.2027 -
Hakeeb Adelakun Doncaster Rovers Aktiv 103 / 113 40% 4 01.03.2027 -
Johnson Amuzu Berekum Chelsea Aktiv 86 / 89 40% 3 01.03.2027 -
Tom Bradshaw Feirense Aktiv 89 / 102 40% 8 26.02.2027 -
Silas Nwankwo Police Union Aktiv 89 / 114 40% 1 26.02.2027 -
Alexandr Kokorin Aris Aktiv 123 / 106 40% 7 21.02.2027 -
Daniel Udoh Salford City Aktiv 95 / 118 40% 1 20.02.2027 -
James Kirby Marsaxlokk Aktiv 75 / 89 40% 3 17.02.2027 -
Ognjen Bondžulić Mladost Lucani Aktiv 93 / 102 40% 1 17.02.2027 -
Stanislav Biblyk Chaika Aktiv 87 / 81 40% 2 12.02.2027 -
Nicolae Milinceanu Doxa Aktiv 93 / 109 40% 1 04.02.2027 -
Dilan Ortíz Ufa Aktiv 112 / 106 40% 3 03.02.2027 -
Alex Tanque Valletta Aktiv 77 / 70 40% 1 03.02.2027 -
Paul Glatzel Swindon Town Aktiv 104 / 115 40% 2 31.01.2027 -
Anton Betyuzhnov Dinamo Vologda Aktiv 83 / 60 40% 1 30.01.2027 -
Nikita Kireev Dinamo Vologda Aktiv 81 / 69 40% 1 29.01.2027 -
Daniil Konoplev Dinamo Bryansk Aktiv 91 / 68 40% 3 26.01.2027 -
Stephen Humphrys Bradford City Aktiv 101 / 92 40% 1 26.01.2027 -
Giannis Kalanidis Nea Salamis Aktiv 85 / 75 62% 1 25.01.2027 Befürworten
Tyrese Shade Burton Albion Aktiv 113 / 106 40% 2 24.01.2027 -
Jacobo Alcalde SKA Khabarovsk Aktiv 79 / 92 40% 3 23.01.2027 -
Denis Rubanov Dinamo Stavropol Aktiv 78 / 98 40% 2 22.01.2027 -
Alexandr Olenev Nart Aktiv 82 / 88 40% 2 19.01.2027 -
Stelios Panagiotou AEL Aktiv 79 / 94 62% 1 18.01.2027 Befürworten
Brandon Hanlan Doncaster Rovers Aktiv 102 / 94 40% 3 16.01.2027 -
Fernandinho Sliema Wanderers Aktiv 94 / 100 40% 1 16.01.2027 -
Dimitris Diamantakos APOEL Aktiv 98 / 99 40% 3 15.01.2027 -
Anthony Lokosa Tarxien Rainbows Aktiv 89 / 103 40% 3 13.01.2027 -
Elliott List Northampton Town Aktiv 84 / 80 40% 1 11.01.2027 -
Matías Mansilla Yenisey Aktiv 106 / 79 40% 1 10.01.2027 -
José Bica Leixões Aktiv 94 / 88 40% 1 03.01.2027 -
Mateo Fernández Angusht Aktiv 73 / 72 40% 7 01.01.2027 -
Jamie Reid Stevenage Abgelehnt 120 / 119 40% 1 31.12.2026 Mehr Infos nötig
Lewis McCann Fleetwood Town Aktiv 87 / 90 40% 1 31.12.2026 -
Rodin Quiñónes Dinamo Batumi Abgelehnt 108 / 113 40% 2 30.12.2026 Mehr Infos nötig
Rafael Lopes Anorthosis Abgelehnt 118 / 110 40% 2 27.12.2026 Mehr Infos nötig
Jesús Molina Chelyabinsk Aktiv 93 / 84 40% 3 25.12.2026 -
Omar Popov Dinamo St Petersburg Aktiv 64 / 75 40% 1 23.12.2026 -
Anton Zabolotny Rostov Aktiv 131 / 121 40% 1 22.12.2026 -
Miullen Hibernians Aktiv 77 / 84 40% 1 20.12.2026 -
Artem Ntumba Rubin Yalta Aktiv 67 / 80 40% 1 20.12.2026 -
Hernán Paredes Volga Aktiv 84 / 77 40% 1 19.12.2026 -
Vinicius Baiano Naxxar Lions Aktiv 82 / 106 40% 1 17.12.2026 -
Marios Ilia Anorthosis Aktiv 112 / 92 40% 2 12.12.2026 -
Luís Mota Zabbar St. Patrick Aktiv 80 / 88 40% 2 11.12.2026 -
Mo Dauda Portimonense Abgelehnt 112 / 111 40% 1 09.12.2026 Mehr Infos nötig
Danila Shilov Dinamo Stavropol Abgelehnt 105 / 92 40% 2 08.12.2026 Mehr Infos nötig
Ivo Costantino Danubio Aktiv 118 / 109 40% 2 06.12.2026 -
Ivan Luquetta Neftekhimik Aktiv 109 / 86 40% 1 05.12.2026 -
Mikhail Gainov Dinamo Stavropol Aktiv 79 / 80 40% 1 02.12.2026 -
Sotiris Tsiloulis Atromitos Aktiv 94 / 122 40% 1 30.11.2026 -
Marco Rossello Probiy Aktiv 81 / 63 40% 2 28.11.2026 -
Ramil Şeydayev Kapaz Aktiv 99 / 93 40% 1 27.11.2026 -
Evgeny Voronin Volga Aktiv 101 / 102 40% 1 26.11.2026 -
Matías Nicosia Angusht Aktiv 67 / 84 40% 3 25.11.2026 -
Cosimo Patierno Casarano Aktiv 106 / 106 40% 2 25.11.2026 -
Rizvan Umarov Dinamo St Petersburg Aktiv 68 / 84 40% 1 23.11.2026 -
Michalis Charalabous Paralimni Aktiv 95 / 93 40% 1 23.11.2026 -
Alejandro Valencia La Equidad Aktiv 123 / 128 40% 3 22.11.2026 -
Franklin Sasere Birkirkara Aktiv 102 / 86 40% 1 22.11.2026 -
Realdo Fili Khazar Aktiv 93 / 91 40% 1 19.11.2026 -
Nikolay Maximov Krylya Sovetov Aktiv 85 / 60 40% 1 18.11.2026 -
Kirill Bogdanets Volna Aktiv 83 / 70 40% 1 17.11.2026 -
Marcel Reguła Zaglebie Aktiv 109 / 114 40% 1 16.11.2026 -
Vincent Aboubakar Neftchi Aktiv 115 / 107 40% 1 15.11.2026 -
Robert Murić Floriana Aktiv 89 / 109 40% 1 13.11.2026 -
Yordy Reyna Rodina Aktiv 110 / 98 40% 2 07.11.2026 -
Georgy Gongadze Ufa Aktiv 92 / 102 40% 1 05.11.2026 -
Jesús Lugo Slavia Mozyr Aktiv 108 / 99 40% 2 02.11.2026 -
Jack Vale Alcione Milano Aktiv 87 / 95 40% 1 31.10.2026 -
Lars Veldwijk Al-Nahda Aktiv 105 / 111 40% 1 31.10.2026 -
Dmitry Lesnikov Volgar Aktiv 101 / 82 40% 1 28.10.2026 -
Franco Toloza Morón Aktiv 104 / 128 40% 1 24.10.2026 -
Asdrúbal Saburtalo Aktiv 96 / 78 40% 1 23.10.2026 -
Nikita Pogrebnev Ryazan Aktiv 72 / 96 40% 1 22.10.2026 -
Alexandr Dolgov Amkar Aktiv 96 / 84 40% 1 21.10.2026 -
Alejandro Melo Temperley Aktiv 102 / 132 40% 1 21.10.2026 -
Julen Cordero Samtredia Aktiv 88 / 91 40% 1 20.10.2026 -
Jacobo Escobar Sokol Aktiv 97 / 96 40% 1 14.10.2026 -
Bruno Gomes Valletta Aktiv 114 / 104 40% 1 13.10.2026 -
Ruslan Bayramov Inter Aktiv 106 / 83 40% 1 12.10.2026 -
Renatto Chira Kolkheti Aktiv 94 / 80 40% 1 09.10.2026 -
Enzo Larrosa Independiente Medellin Aktiv 102 / 109 40% 1 08.10.2026 -
Abdulmajid Aminu Barau Aktiv 89 / 91 40% 2 06.10.2026 -
Cristhian Medina Smorgon Aktiv 104 / 110 40% 1 06.10.2026 -
Suraju Lawal Abia Warriors Aktiv 95 / 95 40% 2 18.09.2026 -
Facundo Rodríguez Talleres Aktiv 89 / 77 40% 1 18.09.2026 -
Ignacio Sabatini Gimnasia y Esgrima Aktiv 104 / 93 40% 1 17.09.2026 -
Alejandro Rincon Aktiv 98 / 77 40% 1 15.09.2026 -
Ryder Matos Hibernians Aktiv 97 / 97 40% 1 13.09.2026 -
Alejandro Samudio Nacional Aktiv 111 / 112 40% 1 11.09.2026 -
Ramiro Ruiz Rodríguez Atlético Tucumán Aktiv 112 / 105 40% 2 09.09.2026 -
Yonatan Jordan Ethnikos Achnas Aktiv 94 / 88 40% 1 09.09.2026 -
Juan Cekalovich Gimnasia y Esgrima Aktiv 74 / 75 40% 1 08.09.2026 -
Braian Uribe Huracán Aktiv 95 / 94 40% 1 07.09.2026 -
Oswaldo Valencia River Plate Aktiv 97 / 90 40% 1 07.09.2026 -
Lazar Kojić Panetolikos Aktiv 90 / 87 40% 1 30.08.2026 -
Kostas Goumas Levadiakos Aktiv 109 / 114 40% 1 30.08.2026 -
Djibril Guèye Liepaja Aktiv 99 / 101 40% 1 29.08.2026 -
Vladyslav Ostrovskyi Nea Salamis Aktiv 87 / 107 40% 1 28.08.2026 -
Oliver Heiðarsson Lokomotiva Zagreb Aktiv 89 / 90 40% 1 27.08.2026 -
Vykintas Slivka Kauno Zalgiris Aktiv 101 / 131 40% 1 27.08.2026 -
Daouda Natama Minsk Aktiv 76 / 95 40% 1 25.08.2026 -
Agustín Bianciotti Metropolitanos Aktiv 95 / 113 40% 1 25.08.2026 -
Gonzalo Sosa Defensa y Justicia Aktiv 68 / 105 40% 1 23.08.2026 -
Marcos Camarda Santiago Wanderers Aktiv 101 / 111 40% 1 23.08.2026 -
Promise Omochere Bristol Rovers Aktiv 83 / 99 40% 1 20.08.2026 -
Johnmark Atule Shooting Stars Aktiv 96 / 106 40% 1 19.08.2026 -
Neofytos Michail Pafos Aktiv 90 / 88 40% 1 19.08.2026 -
Ben Winterbottom Barrow AFC Aktiv 93 / 92 40% 1 19.08.2026 -
Josh Woods Accrington Stanley Aktiv 78 / 78 40% 1 15.08.2026 -
Vasilios Dedidis AE Kition Aktiv 86 / 86 40% 1 14.08.2026 -
Lucas González Nacional Aktiv 104 / 117 40% 1 12.08.2026 -
Ian De Filippi San Lorenzo Aktiv 88 / 90 40% 1 11.08.2026 -
Kamarai Swyer Northampton Town Aktiv 94 / 98 40% 1 11.08.2026 -
Vitinho River Plate Aktiv 92 / 78 40% 1 10.08.2026 -
Pavel Pampukha BKMA Aktiv 80 / 92 40% 1 03.08.2026 -
Germán Cervera Alvarado Aktiv 104 / 120 40% 1 02.08.2026 -
Mauro Martín Progreso Aktiv 101 / 116 40% 1 02.08.2026 -
Edgar Elizalde Defensor Sporting Aktiv 111 / 128 40% 1 01.08.2026 -
Nikola Šipčić Asteras Aktiv 130 / 108 40% 1 01.08.2026 -